Meridian, MS

10:56 PM CDT on August 29, 2016 (GMT -0500)
Key

Weather History for KMEI - December, 2012

Change the Weather History Date:

Wednesday, December 12, 2012

  Actual Average Record
Temperature  
Mean Temperature 43 °F 48 °F  
Max Temperature 55 °F 59 °F 80 °F (1949)
Min Temperature 30 °F 36 °F 8 °F (1962)
Degree Days  
Heating Degree Days 22 17  
Month to date heating degree days 95 195  
Since 1 July heating degree days 622 645  
Cooling Degree Days 0 0  
Month to date cooling degree days 0 0  
Year to date cooling degree days 2177 2029  
Moisture  
Dew Point 28 °F    
Average Humidity 60    
Maximum Humidity 92    
Minimum Humidity 28    
Precipitation  
Precipitation 0.00 in 0.16 in 2.48 in (1961)
Month to date precipitation 2.48 2.15  
Year to date precipitation 56.15 53.25  
Sea Level Pressure  
Sea Level Pressure 30.25 in    
Wind  
Wind Speed 7 mph (North)    
Max Wind Speed 15 mph    
Max Gust Speed 20 mph    
Visibility 10 miles    
Events      
T = Trace of Precipitation, MM = Missing Value Source: NWS Daily Summary

Daily Weather History Graph

Daily Weather History Graph

Search for Another Location

Airport or City:

Trip Planner

Search our weather history database for the weather conditions in past years. The results will help you decide how hot, cold, wet, or windy it might be!

Date:

Astronomy

Dec. 12, 2012 Rise Set
Actual Time 6:47 AM CST 4:50 PM CST
Civil Twilight 6:20 AM CST 5:17 PM CST
Nautical Twilight 5:49 AM CST 5:48 PM CST
Astronomical Twilight 5:19 AM CST 6:18 PM CST
Moon 5:52 AM CST (12/12) 4:26 PM CST (12/12)
Length of Visible Light 10h 57m
Length of Day
10h 03m
Waning Crescent, 1% of the Moon is Illuminated
Dec 12
Waning Crescent
Dec 13
New
Dec 19
First Quarter
Dec 28
Full
Jan 4
Last Quarter

Hourly Weather History & Observations

Time (CST) Temp. Windchill Dew Point Humidity Pressure Visibility Wind Dir Wind Speed Gust Speed Precip Events Conditions
12:58 AM 37.0 °F 32.4 °F 33.1 °F 86% 30.20 in 10.0 mi North 5.8 mph - N/A   Clear
1:58 AM 36.0 °F 31.1 °F 33.1 °F 89% 30.20 in 10.0 mi NNW 5.8 mph - N/A   Clear
2:58 AM 36.0 °F 31.1 °F 33.1 °F 89% 30.20 in 10.0 mi North 5.8 mph - N/A   Clear
3:58 AM 37.9 °F 31.5 °F 30.0 °F 73% 30.21 in 10.0 mi NNE 9.2 mph - N/A   Clear
4:58 AM 37.0 °F 31.6 °F 30.0 °F 76% 30.22 in 10.0 mi NNE 6.9 mph - N/A   Clear
5:58 AM 36.0 °F 30.3 °F 28.9 °F 76% 30.22 in 10.0 mi North 6.9 mph - N/A   Clear
6:58 AM 36.0 °F 30.3 °F 30.0 °F 79% 30.23 in 10.0 mi North 6.9 mph - N/A   Clear
7:58 AM 37.9 °F 33.5 °F 30.0 °F 73% 30.25 in 10.0 mi North 5.8 mph - N/A   Clear
8:58 AM 42.1 °F 36.6 °F 28.0 °F 58% 30.28 in 10.0 mi North 9.2 mph - N/A   Clear
9:58 AM 46.9 °F - 24.1 °F 41% 30.28 in 10.0 mi North 12.7 mph - N/A   Clear
10:58 AM 50.0 °F - 21.9 °F 33% 30.26 in 10.0 mi Variable 6.9 mph - N/A   Partly Cloudy
11:58 AM 52.0 °F - 21.0 °F 30% 30.25 in 10.0 mi North 10.4 mph - N/A   Partly Cloudy
12:58 PM 52.0 °F - 21.9 °F 31% 30.22 in 10.0 mi NW 8.1 mph 17.3 mph N/A   Clear
1:58 PM 53.1 °F - 21.0 °F 29% 30.22 in 10.0 mi NNW 10.4 mph - N/A   Clear
2:58 PM 54.0 °F - 21.9 °F 29% 30.23 in 10.0 mi North 8.1 mph - N/A   Partly Cloudy
3:58 PM 51.1 °F - 25.0 °F 36% 30.25 in 10.0 mi North 11.5 mph - N/A   Clear
4:58 PM 45.0 °F 41.8 °F 28.9 °F 53% 30.27 in 10.0 mi NNW 5.8 mph - N/A   Clear
5:58 PM 42.8 °F 38.6 °F 28.4 °F 57% 30.24 in 10.0 mi North 6.9 mph - N/A   Clear
6:58 PM 37.0 °F 34.5 °F 30.9 °F 79% 30.25 in 10.0 mi NNW 3.5 mph - N/A   Clear
7:58 PM 35.1 °F - 30.9 °F 85% 30.28 in 10.0 mi Calm Calm - N/A   Clear
9:58 PM 34.0 °F - 30.0 °F 85% 30.31 in 10.0 mi Calm Calm - N/A   Clear
10:58 PM 32.0 °F 25.6 °F 28.9 °F 88% 30.31 in 10.0 mi North 6.9 mph - N/A   Clear
11:58 PM 33.1 °F 27.7 °F 28.9 °F 85% 30.31 in 10.0 mi ENE 5.8 mph - N/A   Clear